ROMMA est une association bénévole à but non lucratif. Votre soutien est indispensable : ADHERER à ROMMA ou FAIRE un DON

Crest - (26, Drôme)

Vallée de la Drôme (315 m)   Longitude: 5°2' E   Latitude: 44°44' N Station partenaire n°62
 

Détail journalier du     <<     >>

Température Precipitation Humidité Pression Vent Dir Rafale Dir. rafale Ensol.
Heure (°C) (mm) (%) (hPa) (km/h) (km/h) (min)
01:00 20.205710172ESE6SE0
02:00 18.506310171SE6SE0
03:00 18.806210171SE6SE0
04:00 17.606710172S11ESE0
05:00 16.906910172SO6ESE0
06:00 16.407110171SE5SE0
07:00 16.406910172SE6SE0
08:00 16.3073101703SE0
09:00 19.306410171SE5SE32
10:00 22.705510173SE8SE60
11:00 24.405310183S10S52
12:00 26.405010174S15S58
13:00 28.204010165S18S60
14:00 29.403910166S18SSO46
15:00 30.803110158S21NE60
16:00 31.5021101513NE29NE60
17:00 30.8027101515NE31NE60
18:00 30.3023101515NE34NNE60
19:00 29.6023101513NE29NE60
20:00 27.9026101510NE21NNO0
21:00 26.302710157NE16NE0
22:00 24.803210166NE16ENE0
23:00 21.704210162SSE8SSO0
minuit 19.904710161SSE5SSE0

Graphique du 25-08-2019

 

Serveur OMMA